• In Uzbekistan
  • List of Countries
  • For 7 days
  • Water Temperature
  • Satellite Maps
  • Weather Map
  • Weather Widgets
  • user-avatar
    Login

    Hourly Weather Banswara

    Today, 14 December, Friday

    Time Temperature Precipitation Wind Pressure Humidity
    00:00 +16°C° 0 mm 3 mps 743 mmHg 43%
    01:00 +16°C° 0 mm 3 mps 743 mmHg 44%
    02:00 +15°C° 0 mm 4 mps 743 mmHg 46%
    03:00 +15°C° 0 mm 4 mps 743 mmHg 48%
    04:00 +14°C° 0 mm 4 mps 743 mmHg 50%
    05:00 +14°C° 0 mm 4 mps 743 mmHg 52%
    06:00 +15°C° 0 mm 4 mps 744 mmHg 52%
    07:00 +15°C° 0 mm 5 mps 744 mmHg 52%
    08:00 +16°C° 0 mm 5 mps 744 mmHg 51%
    09:00 +19°C° 0 mm 5 mps 745 mmHg 46%
    10:00 +21°C° 0 mm 5 mps 745 mmHg 40%
    11:00 +23°C° 0 mm 5 mps 745 mmHg 34%
    12:00 +25°C° 0 mm 4 mps 744 mmHg 31%
    13:00 +26°C° 0 mm 4 mps 743 mmHg 28%
    14:00 +27°C° 0 mm 4 mps 743 mmHg 24%
    15:00 +26°C° 0 mm 4 mps 743 mmHg 26%
    16:00 +25°C° 0 mm 4 mps 742 mmHg 28%
    17:00 +23°C° 0 mm 4 mps 742 mmHg 30%
    18:00 +22°C° 0 mm 4 mps 742 mmHg 33%
    19:00 +21°C° 0 mm 4 mps 743 mmHg 35%
    20:00 +19°C° 0 mm 5 mps 743 mmHg 38%
    21:00 +19°C° 0 mm 5 mps 743 mmHg 39%
    22:00 +17°C° 0 mm 5 mps 744 mmHg 41%
    23:00 +17°C° 0 mm 5 mps 744 mmHg 43%

    Tomorrow, 15 December, Saturday

    Time Temperature Precipitation Wind Pressure Humidity
    00:00 +16°C° 0 mm 5 mps 744 mmHg 44%
    01:00 +16°C° 0 mm 5 mps 743 mmHg 45%
    02:00 +15°C° 0 mm 5 mps 743 mmHg 46%
    03:00 +15°C° 0 mm 5 mps 743 mmHg 46%
    04:00 +15°C° 0 mm 5 mps 743 mmHg 46%
    05:00 +14°C° 0 mm 5 mps 743 mmHg 47%
    06:00 +15°C° 0 mm 5 mps 743 mmHg 45%
    07:00 +15°C° 0 mm 5 mps 744 mmHg 44%
    08:00 +16°C° 0 mm 6 mps 745 mmHg 43%
    09:00 +19°C° 0 mm 6 mps 744 mmHg 39%
    10:00 +21°C° 0 mm 5 mps 744 mmHg 34%
    11:00 +25°C° 0 mm 5 mps 744 mmHg 30%
    12:00 +26°C° 0 mm 5 mps 743 mmHg 28%
    13:00 +27°C° 0 mm 5 mps 743 mmHg 26%
    14:00 +27°C° 0 mm 4 mps 742 mmHg 24%
    15:00 +26°C° 0 mm 4 mps 742 mmHg 25%
    16:00 +26°C° 0 mm 4 mps 742 mmHg 26%
    17:00 +25°C° 0 mm 4 mps 741 mmHg 28%
    18:00 +22°C° 0 mm 4 mps 742 mmHg 29%
    19:00 +21°C° 0 mm 4 mps 742 mmHg 30%
    20:00 +19°C° 0 mm 4 mps 743 mmHg 30%
    21:00 +19°C° 0 mm 4 mps 743 mmHg 31%
    22:00 +18°C° 0 mm 4 mps 743 mmHg 32%
    23:00 +17°C° 0 mm 5 mps 743 mmHg 33%

    Day after tomorrow, 16 December, Sunday

    Time Temperature Precipitation Wind Pressure Humidity
    00:00 +16°C° 0 mm 5 mps 743 mmHg 35%
    01:00 +16°C° 0 mm 5 mps 743 mmHg 36%
    02:00 +15°C° 0 mm 5 mps 743 mmHg 38%
    03:00 +15°C° 0 mm 5 mps 742 mmHg 39%
    04:00 +14°C° 0 mm 4 mps 742 mmHg 41%
    05:00 +14°C° 0 mm 4 mps 742 mmHg 42%
    06:00 +15°C° 0 mm 5 mps 743 mmHg 41%
    07:00 +15°C° 0 mm 5 mps 744 mmHg 40%
    08:00 +16°C° 0 mm 5 mps 744 mmHg 39%
    09:00 +19°C° 0 mm 5 mps 744 mmHg 35%
    10:00 +22°C° 0 mm 5 mps 744 mmHg 30%
    11:00 +25°C° 0 mm 5 mps 744 mmHg 26%
    12:00 +26°C° 0 mm 5 mps 743 mmHg 24%
    13:00 +27°C° 0 mm 4 mps 742 mmHg 23%
    14:00 +27°C° 0 mm 4 mps 742 mmHg 21%
    15:00 +26°C° 0 mm 4 mps 741 mmHg 23%
    16:00 +25°C° 0 mm 3 mps 741 mmHg 24%
    17:00 +24°C° 0 mm 3 mps 741 mmHg 26%
    18:00 +22°C° 0 mm 3 mps 742 mmHg 27%
    19:00 +21°C° 0 mm 4 mps 742 mmHg 28%
    20:00 +19°C° 0 mm 4 mps 743 mmHg 29%
    21:00 +19°C° 0 mm 4 mps 743 mmHg 30%
    22:00 +18°C° 0 mm 4 mps 743 mmHg 31%
    23:00 +17°C° 0 mm 4 mps 742 mmHg 32%

    17 December, Monday

    Time Temperature Precipitation Wind Pressure Humidity
    00:00 +17°C° 0 mm 4 mps 742 mmHg 33%
    01:00 +15°C° 0 mm 4 mps 742 mmHg 34%
    02:00 +15°C° 0 mm 4 mps 742 mmHg 35%
    03:00 +14°C° 0 mm 4 mps 742 mmHg 36%
    04:00 +14°C° 0 mm 4 mps 742 mmHg 38%
    05:00 +13°C° 0 mm 3 mps 742 mmHg 39%
    06:00 +14°C° 0 mm 4 mps 742 mmHg 39%
    07:00 +14°C° 0 mm 4 mps 743 mmHg 38%
    08:00 +15°C° 0 mm 5 mps 743 mmHg 37%
    09:00 +17°C° 0 mm 5 mps 743 mmHg 32%
    10:00 +21°C° 0 mm 5 mps 743 mmHg 27%
    11:00 +23°C° 0 mm 5 mps 743 mmHg 22%
    12:00 +25°C° 0 mm 4 mps 742 mmHg 21%
    13:00 +26°C° 0 mm 4 mps 742 mmHg 19%
    14:00 +27°C° 0 mm 3 mps 741 mmHg 17%
    15:00 +26°C° 0 mm 3 mps 740 mmHg 19%
    16:00 +25°C° 0 mm 3 mps 740 mmHg 21%
    17:00 +24°C° 0 mm 3 mps 740 mmHg 23%
    18:00 +21°C° 0 mm 3 mps 741 mmHg 24%
    19:00 +20°C° 0 mm 3 mps 741 mmHg 26%
    20:00 +19°C° 0 mm 4 mps 742 mmHg 27%
    21:00 +18°C° 0 mm 3 mps 742 mmHg 29%
    22:00 +17°C° 0 mm 3 mps 742 mmHg 30%
    23:00 +17°C° 0 mm 3 mps 742 mmHg 32%

    18 December, Tuesday

    Time Temperature Precipitation Wind Pressure Humidity
    00:00 +16°C° 0 mm 3 mps 741 mmHg 33%
    01:00 +16°C° 0 mm 3 mps 741 mmHg 34%
    02:00 +14°C° 0 mm 3 mps 741 mmHg 36%
    03:00 +14°C° 0 mm 3 mps 741 mmHg 37%
    04:00 +13°C° 0 mm 3 mps 741 mmHg 38%
    05:00 +13°C° 0 mm 3 mps 741 mmHg 38%
    06:00 +14°C° 0 mm 4 mps 742 mmHg 38%
    07:00 +14°C° 0 mm 4 mps 743 mmHg 37%
    08:00 +15°C° 0 mm 4 mps 743 mmHg 37%
    09:00 +18°C° 0 mm 4 mps 743 mmHg 32%
    10:00 +21°C° 0 mm 4 mps 743 mmHg 27%
    11:00 +23°C° 0 mm 4 mps 743 mmHg 22%
    12:00 +25°C° 0 mm 3 mps 742 mmHg 20%
    13:00 +26°C° 0 mm 3 mps 741 mmHg 17%
    14:00 +27°C° 0 mm 3 mps 740 mmHg 15%
    15:00 +26°C° 0 mm 2 mps 740 mmHg 16%
    16:00 +25°C° 0 mm 2 mps 740 mmHg 18%
    17:00 +24°C° 0 mm 2 mps 740 mmHg 19%
    18:00 +22°C° 0 mm 3 mps 740 mmHg 20%
    19:00 +20°C° 0 mm 3 mps 741 mmHg 21%
    20:00 +19°C° 0 mm 3 mps 741 mmHg 22%
    21:00 +18°C° 0 mm 3 mps 741 mmHg 23%
    22:00 +17°C° 0 mm 3 mps 741 mmHg 25%
    23:00 +17°C° 0 mm 3 mps 741 mmHg 26%

    19 December, Wednesday

    Time Temperature Precipitation Wind Pressure Humidity
    00:00 +16°C° 0 mm 3 mps 741 mmHg 27%
    01:00 +16°C° 0 mm 3 mps 740 mmHg 28%
    02:00 +14°C° 0 mm 3 mps 740 mmHg 30%
    03:00 +14°C° 0 mm 3 mps 740 mmHg 30%
    04:00 +13°C° 0 mm 3 mps 740 mmHg 31%
    05:00 +14°C° 0 mm 2 mps 740 mmHg 32%
    06:00 +15°C° 0 mm 2 mps 741 mmHg 32%
    07:00 +16°C° 0 mm 2 mps 742 mmHg 32%
    08:00 +16°C° 0 mm 2 mps 742 mmHg 32%
    09:00 +19°C° 0 mm 2 mps 742 mmHg 29%
    10:00 +23°C° 0 mm 2 mps 742 mmHg 26%
    11:00 +25°C° 0 mm 2 mps 742 mmHg 24%
    12:00 +26°C° 0 mm 2 mps 742 mmHg 22%
    13:00 +27°C° 0 mm 1 mps 741 mmHg 20%
    14:00 +28°C° 0 mm 1 mps 740 mmHg 18%
    15:00 +27°C° 0 mm 1 mps 740 mmHg 19%
    16:00 +27°C° 0 mm 1 mps 740 mmHg 21%
    17:00 +26°C° 0 mm 2 mps 740 mmHg 22%
    18:00 +24°C° 0 mm 2 mps 740 mmHg 23%
    19:00 +23°C° 0 mm 2 mps 741 mmHg 24%
    20:00 +21°C° 0 mm 2 mps 741 mmHg 24%
    21:00 +20°C° 0 mm 3 mps 741 mmHg 25%
    22:00 +19°C° 0 mm 3 mps 741 mmHg 26%
    23:00 +19°C° 0 mm 3 mps 741 mmHg 27%
    Show more